TimeMDT,TemperatureF,Dew PointF,Humidity,Sea Level PressureIn,VisibilityMPH,Wind Direction,Wind SpeedMPH,Gust SpeedMPH,PrecipitationIn,Events,Conditions,WindDirDegrees,DateUTC
12:53 AM,50.0,10.9,21,29.92,10.0,Calm,Calm,-,N/A,,Clear,0,2012-10-06 06:53:00
1:53 AM,55.0,5.0,13,29.91,10.0,NNW,17.3,-,N/A,,Clear,340,2012-10-06 07:53:00
2:53 AM,51.1,8.1,18,29.93,10.0,Calm,Calm,-,N/A,,Clear,0,2012-10-06 08:53:00
3:53 AM,45.0,8.1,22,29.94,10.0,ENE,3.5,-,N/A,,Clear,70,2012-10-06 09:53:00
4:53 AM,46.0,8.1,21,29.96,10.0,ENE,4.6,-,N/A,,Clear,60,2012-10-06 10:53:00
5:53 AM,44.1,8.1,23,30.00,10.0,ENE,8.1,-,N/A,,Clear,70,2012-10-06 11:53:00
6:53 AM,48.0,10.0,22,30.02,10.0,WNW,4.6,-,N/A,,Clear,290,2012-10-06 12:53:00
7:53 AM,44.6,10.4,25,30.16,10.0,North,5.8,-,N/A,,Clear,350,2012-10-06 13:53:00
8:53 AM,50.0,10.9,21,30.09,10.0,North,6.9,-,N/A,,Clear,360,2012-10-06 14:53:00
9:53 AM,53.1,10.0,18,30.09,10.0,NE,11.5,18.4,N/A,,Clear,50,2012-10-06 15:53:00
10:53 AM,55.0,9.0,16,30.08,10.0,ENE,6.9,17.3,N/A,,Clear,60,2012-10-06 16:53:00
11:53 AM,55.9,8.1,15,30.06,10.0,ENE,5.8,-,N/A,,Clear,60,2012-10-06 17:53:00
12:53 PM,59.0,6.1,12,30.03,10.0,Variable,5.8,17.3,N/A,,Clear,0,2012-10-06 18:53:00
1:53 PM,60.1,6.1,12,29.98,10.0,South,4.6,-,N/A,,Clear,180,2012-10-06 19:53:00
2:53 PM,62.1,3.9,10,29.96,10.0,ESE,5.8,-,N/A,,Clear,110,2012-10-06 20:53:00
3:53 PM,62.1,5.0,10,29.96,10.0,Calm,Calm,-,N/A,,Clear,0,2012-10-06 21:53:00
4:53 PM,62.1,8.1,12,29.94,10.0,West,4.6,-,N/A,,Clear,260,2012-10-06 22:53:00
5:53 PM,61.0,8.1,12,29.94,10.0,West,3.5,-,N/A,,Clear,270,2012-10-06 23:53:00
6:53 PM,55.9,12.0,18,29.95,10.0,North,6.9,-,N/A,,Clear,360,2012-10-07 00:53:00
7:53 PM,54.0,8.1,16,29.97,10.0,NE,13.8,-,N/A,,Clear,50,2012-10-07 01:53:00
8:53 PM,53.1,10.0,18,29.96,10.0,ENE,12.7,-,N/A,,Clear,60,2012-10-07 02:53:00
9:53 PM,50.0,10.4,20,30.06,10.0,West,5.8,-,N/A,,Clear,280,2012-10-07 03:53:00
10:53 PM,48.9,9.0,20,29.98,10.0,North,6.9,-,N/A,,Clear,360,2012-10-07 04:53:00
11:53 PM,48.0,9.0,21,29.99,10.0,North,3.5,-,N/A,,Clear,360,2012-10-07 05:53:00